Sylvania, OH

6:23 PM EST on February 25, 2017 (GMT -0500)
Lambertville

Weather History for KDUH - October, 2012

Change the Weather History Date:

Tuesday, October 9, 2012

  Actual Average (KTOL) Record (KTOL)
Temperature  
Mean Temperature 49 °F -  
Max Temperature 62 °F 63 °F 86 °F (1949)
Min Temperature 36 °F 43 °F 25 °F (1989)
Degree Days  
Heating Degree Days 16    
Moisture  
Dew Point 35 °F    
Average Humidity 60    
Maximum Humidity 89    
Minimum Humidity 34    
Precipitation  
Precipitation 0.00 in - - ()
Sea Level Pressure  
Sea Level Pressure 30.03 in    
Wind  
Wind Speed 5 mph (SSW)    
Max Wind Speed 14 mph    
Max Gust Speed 24 mph    
Visibility 9 miles    
Events      
Averages and records for this station are not official NWS values.
T = Trace of Precipitation, MM = Missing Value Source: NWS Daily Summary

Daily Weather History Graph

Daily Weather History Graph

Search for Another Location

Airport or City:

Trip Planner

Search our weather history database for the weather conditions in past years. The results will help you decide how hot, cold, wet, or windy it might be!

Date:

Astronomy

Oct. 09, 2012 Rise Set
Actual Time 7:40 AM EDT 7:02 PM EDT
Civil Twilight 7:12 AM EDT 7:29 PM EDT
Nautical Twilight 6:40 AM EDT 8:02 PM EDT
Astronomical Twilight 6:08 AM EDT 8:34 PM EDT
Moon 1:11 AM EDT (10/9) 3:33 PM EDT (10/9)
Length of Visible Light 12h 17m
Length of Day
11h 21m
Last Quarter, 37% of the Moon is Illuminated
Oct 9
Last Quarter
Oct 15
New
Oct 21
First Quarter
Oct 29
Full
Nov 6
Last Quarter

Hourly Weather History & Observations

Time (EDT) Temp. Windchill Dew Point Humidity Pressure Visibility Wind Dir Wind Speed Gust Speed Precip Events Conditions
12:35 AM 37.2 °F - 32.0 °F 81% 30.14 in 10.0 mi Calm Calm - N/A   Clear
12:55 AM 36.9 °F - 31.6 °F 81% 30.13 in 10.0 mi Calm Calm - N/A   Clear
1:15 AM 36.5 °F - 32.0 °F 84% 30.13 in 10.0 mi Calm Calm - N/A   Clear
1:35 AM 37.4 °F - 31.6 °F 80% 30.13 in 10.0 mi Calm Calm - N/A   Clear
1:55 AM 37.4 °F 34.9 °F 31.5 °F 79% 30.13 in 10.0 mi SSE 3.5 mph - N/A   Clear
2:15 AM 37.4 °F 34.9 °F 31.3 °F 79% 30.14 in 10.0 mi South 3.5 mph - N/A   Clear
2:55 AM 37.4 °F 34.9 °F 31.5 °F 79% 30.13 in 10.0 mi South 3.5 mph - N/A   Clear
3:15 AM 37.8 °F 34.2 °F 31.6 °F 79% 30.13 in 10.0 mi South 4.6 mph - N/A   Clear
3:55 AM 37.9 °F 34.4 °F 32.0 °F 79% 30.12 in 10.0 mi South 4.6 mph - N/A   Clear
4:15 AM 37.2 °F 33.6 °F 32.0 °F 81% 30.11 in 10.0 mi South 4.6 mph - N/A   Clear
4:35 AM 37.9 °F 34.4 °F 32.4 °F 80% 30.11 in 10.0 mi South 4.6 mph - N/A   Clear
4:55 AM 37.9 °F 33.5 °F 32.9 °F 82% 30.11 in 10.0 mi South 5.8 mph - N/A   Clear
5:15 AM 38.3 °F 33.9 °F 33.8 °F 84% 30.11 in 10.0 mi SSW 5.8 mph - N/A   Clear
5:35 AM 38.3 °F 34.8 °F 34.0 °F 84% 30.11 in 10.0 mi South 4.6 mph - N/A   Clear
5:55 AM 38.3 °F 33.9 °F 34.5 °F 86% 30.11 in 10.0 mi South 5.8 mph - N/A   Clear
6:15 AM 38.5 °F 35.0 °F 34.9 °F 87% 30.12 in 10.0 mi SSW 4.6 mph - N/A   Clear
6:35 AM 38.3 °F 33.9 °F 34.9 °F 87% 30.12 in 10.0 mi SSW 5.8 mph - N/A   Clear
6:55 AM 38.8 °F 35.4 °F 35.6 °F 88% 30.12 in 7.0 mi South 4.6 mph - N/A   Clear
7:15 AM 38.5 °F 34.1 °F 35.2 °F 88% 30.12 in 7.0 mi South 5.8 mph - N/A   Clear
7:35 AM 38.5 °F 34.1 °F 35.6 °F 89% 30.12 in 7.0 mi South 5.8 mph - N/A   Clear
7:55 AM 38.7 °F 36.3 °F 35.8 °F 89% 30.12 in 5.0 mi South 3.5 mph - N/A   Clear
8:15 AM 39.2 °F 35.0 °F 36.1 °F 89% 30.12 in 5.0 mi South 5.8 mph - N/A   Clear
8:35 AM 40.3 °F 35.5 °F 37.0 °F 88% 30.11 in 5.0 mi South 6.9 mph - N/A   Clear
8:55 AM 41.7 °F 36.1 °F 37.4 °F 85% 30.11 in 7.0 mi South 9.2 mph - N/A   Clear
9:15 AM 43.5 °F 39.4 °F 37.6 °F 80% 30.11 in 10.0 mi South 6.9 mph - N/A   Clear
9:35 AM 45.5 °F 41.8 °F 37.6 °F 74% 30.12 in 10.0 mi SSW 6.9 mph - N/A   Clear
9:55 AM 47.3 °F - 37.6 °F 69% 30.11 in 10.0 mi SSW 5.8 mph - N/A   Clear
10:15 AM 49.1 °F - 37.4 °F 64% 30.11 in 10.0 mi SSW 8.1 mph - N/A   Clear
10:35 AM 50.9 °F - 37.2 °F 59% 30.10 in 10.0 mi SSW 9.2 mph - N/A   Clear
10:55 AM 52.0 °F - 37.9 °F 59% 30.10 in 10.0 mi SSW 8.1 mph - N/A   Clear
11:15 AM 52.7 °F - 37.8 °F 57% 30.09 in 10.0 mi South 6.9 mph - N/A   Clear
11:35 AM 54.9 °F - 38.1 °F 53% 30.09 in 10.0 mi South 9.2 mph - N/A   Clear
11:55 AM 55.9 °F - 37.6 °F 50% 30.08 in 10.0 mi SSW 8.1 mph - N/A   Clear
12:15 PM 57.6 °F - 37.2 °F 47% 30.07 in 10.0 mi SW 6.9 mph - N/A   Clear
12:35 PM 58.5 °F - 36.0 °F 43% 30.07 in 10.0 mi SSW 11.5 mph 17.3 mph N/A   Clear
12:55 PM 58.8 °F - 34.9 °F 41% 30.06 in 10.0 mi SW 9.2 mph 18.4 mph N/A   Clear
1:15 PM 59.5 °F - 34.9 °F 40% 30.04 in 10.0 mi SW 9.2 mph 19.6 mph N/A   Clear
1:35 PM 60.4 °F - 34.7 °F 38% 30.03 in 10.0 mi SSW 11.5 mph 18.4 mph N/A   Clear
1:55 PM 60.8 °F - 33.8 °F 36% 30.01 in 10.0 mi SSW 11.5 mph 24.2 mph N/A   Clear
2:15 PM 61.2 °F - 34.2 °F 36% 30.01 in 10.0 mi SW 12.7 mph 19.6 mph N/A   Clear
2:35 PM 61.5 °F - 33.8 °F 35% 29.99 in 10.0 mi SSW 13.8 mph 20.7 mph N/A   Clear
2:55 PM 61.2 °F - 32.9 °F 35% 29.99 in 10.0 mi SW 10.4 mph 17.3 mph N/A   Clear
3:15 PM 61.3 °F - 32.7 °F 34% 29.99 in 10.0 mi SSW 10.4 mph 21.9 mph N/A   Clear
3:35 PM 61.7 °F - 33.4 °F 35% 29.98 in 10.0 mi SW 12.7 mph 20.7 mph N/A   Clear
3:55 PM 61.9 °F - 33.3 °F 34% 29.97 in 10.0 mi South 11.5 mph 21.9 mph N/A   Clear
4:15 PM 62.2 °F - 33.8 °F 35% 29.95 in 10.0 mi SW 12.7 mph 20.7 mph N/A   Clear
4:35 PM 62.1 °F - 33.6 °F 34% 29.95 in 10.0 mi SSW 10.4 mph 20.7 mph N/A   Clear
4:55 PM 61.7 °F - 32.9 °F 34% 29.95 in 10.0 mi SSW 9.2 mph 19.6 mph N/A   Clear
5:15 PM 61.7 °F - 32.9 °F 34% 29.94 in 10.0 mi SSW 12.7 mph 18.4 mph N/A   Clear
5:35 PM 61.2 °F - 32.5 °F 34% 29.94 in 10.0 mi South 9.2 mph 20.7 mph N/A   Clear
5:55 PM 60.3 °F - 32.5 °F 35% 29.93 in 10.0 mi SSW 9.2 mph 16.1 mph N/A   Clear
6:15 PM 59.5 °F - 33.1 °F 37% 29.93 in 10.0 mi SSW 9.2 mph - N/A   Clear
6:35 PM 59.0 °F - 33.3 °F 38% 29.93 in 10.0 mi SSW 5.8 mph - N/A   Clear
6:55 PM 58.1 °F - 33.8 °F 40% 29.93 in 10.0 mi SSW 6.9 mph - N/A   Clear
7:15 PM 57.2 °F - 34.7 °F 43% 29.93 in 10.0 mi South 3.5 mph - N/A   Clear
7:35 PM 56.1 °F - 35.2 °F 45% 29.93 in 10.0 mi South 4.6 mph - N/A   Clear
7:55 PM 55.8 °F - 35.6 °F 47% 29.93 in 10.0 mi South 5.8 mph - N/A   Clear
8:15 PM 55.4 °F - 35.6 °F 47% 29.93 in 10.0 mi South 4.6 mph - N/A   Clear
8:35 PM 55.0 °F - 35.6 °F 48% 29.93 in 10.0 mi South 5.8 mph - N/A   Clear
8:55 PM 54.5 °F - 35.6 °F 49% 29.93 in 10.0 mi South 4.6 mph - N/A   Clear
9:15 PM 54.1 °F - 35.8 °F 50% 29.93 in 10.0 mi South 5.8 mph - N/A   Clear
9:35 PM 54.0 °F - 36.3 °F 51% 29.93 in 10.0 mi South 8.1 mph - N/A   Clear
9:55 PM 53.6 °F - 36.7 °F 53% 29.92 in 10.0 mi South 6.9 mph - N/A   Clear
10:15 PM 53.6 °F - 37.0 °F 53% 29.91 in 7.0 mi South 6.9 mph - N/A   Clear
10:35 PM 53.6 °F - 37.2 °F 54% 29.90 in 5.0 mi South 5.8 mph - N/A   Haze
10:55 PM 53.6 °F - 37.4 °F 54% 29.90 in 5.0 mi South 9.2 mph - N/A   Haze
11:15 PM 54.0 °F - 37.4 °F 54% 29.89 in 10.0 mi South 9.2 mph - N/A   Clear
11:35 PM 53.6 °F - 37.6 °F 55% 29.89 in 10.0 mi SSW 8.1 mph - N/A   Clear
11:55 PM 53.6 °F - 37.9 °F 55% 29.88 in 10.0 mi SSW 10.4 mph 17.3 mph N/A   Clear